sat.trackr.live / text

‹ back to catalog

INTELSAT 32E (IS-32E)

NORAD 41945 · 2017-007B

PAYLOAD ACTIVE UNKNOWN

§ Identity

Operator
Country
ITSO
Launch date
2017-02-14
Launch site
FRGUI
Launch vehicle
Mass (kg)
RCS (m²)
14.74

Purposes: comms

External: N2YO · Heavens-Above · Gunter

§ Orbital elements

Epoch: 2026-05-25T04:52:46.293312Z

Period
1,436.11 min
Inclination
0.0176°
Eccentricity
0.0000275
Mean motion
1.00270562 rev/d
Perigee alt
35,785.8 km
Apogee alt
35,788.1 km
Semi-major
42,165.1 km
B*
0.0000e+0
RAAN
331.4767°
Arg perigee
344.3089°
Mean anomaly
317.0214°
Rev number
3,399

§ Raw data

INTELSAT 32E (IS-32E)1 41945U 17007B   26145.20331358 -.00000271  00000+0  00000+0 0  99902 41945   0.0176 331.4767 0000275 344.3089 317.0214  1.00270562 33990

JSON: /api/v1/satellites/41945 · /tle

For live sub-satellite position, see the globe view (requires WebGL).

§ Visibility from observer

Set your observer location to see the next 7 days of passes ≥ 10°. The values pass through the URL so the page stays shareable.

No JS? Fill the form by hand. The geolocation button needs JavaScript.